Weather Roundup
Issued by NWS

Home | Current Version | Previous Version | Text Only | Print | Product List | Glossary On
Versions: 1 2 3 4 5 6 7 8 9 10 11 12 13 14 15 16 17 18 19 20 21 22 23 24 25 26 27 28 29 30 31 32 33 34 35 36 37 38 39 40 41 42 43 44 45 46 47 48 49 50
000
NZUS93 KARX 191410
HRRWXR

CURRENT HOURLY OBSERVATIONS ACROSS
MUCH OF THE UPPER MISSISSIPPI VALLEY
NATIONAL WEATHER SERVICE LA CROSSE WI
900 AM CDT FRI SEP 19 2014


...SOUTHEAST MINNESOTA...


CITY           SKY/WX    TMP DP  RH WIND       PRES   REMARKS
ROCHESTER      MOSUNNY   58  50  75 S15G26    29.96F
ROCHESTER/MAYO FAIR      58  48  69 SE13G21   29.95F
WINONA         MOSUNNY   61  50  67 SE6       29.99F
AUSTIN         MOSUNNY   57  52  82 S10G16    29.96F
ALBERT LEA     PTSUNNY   59  54  82 S12       29.94S
DODGE CENTER   MOSUNNY   63  54  72 S18G25    29.94F
PRESTON        SUNNY     56  53  89 S13       29.99F
OWATONNA       PTSUNNY   61  52  72 S17G23    29.92S
FARIBAULT      PTSUNNY   63  52  67 S14G23    29.91F
$$

...ELSEWHERE IN MINNESOTA...


CITY           SKY/WX    TMP DP  RH WIND       PRES   REMARKS
MINNEAPOLIS    PTSUNNY   59  51  75 SE9       29.90F
INTNL FALLS    CLOUDY    59  54  83 S9        29.63F
DULUTH         CLOUDY    59  52  77 S20G28    29.83F
RED WING       MOSUNNY   61  50  67 SE6       29.93F
REDWOOD FALLS  CLOUDY    63  58  83 S18G24    29.80F
MANKATO        CLOUDY    61  52  72 S14G22    29.88F
WORTHINGTON    CLOUDY    61  59  94 S15       29.85F
FAIRMONT       CLOUDY    61  52  72 S12       29.89F
$$

...SOUTHWEST WISCONSIN...


CITY           SKY/WX    TMP DP  RH WIND       PRES   REMARKS
LA CROSSE      SUNNY     59  51  75 S13       30.02F
PRAIRIE DU CHI SUNNY     56  52  85 SE6       30.06F FOG
BOSCOBEL       SUNNY     58  52  80 CALM      30.08F
LONE ROCK      SUNNY     59  53  80 E8        30.10F HAZE
PLATTEVILLE    SUNNY     55  53  94 SE9       30.10F
FORT MC COY    SUNNY     58  49  70 S9G16     30.05F
VIROQUA        FAIR      55  54  98 S9        30.05F
WIS DELLS      PTSUNNY   55  53  90 S10       30.09F FOG
$$

...ELSEWHERE IN WISCONSIN...


CITY           SKY/WX    TMP DP  RH WIND       PRES   REMARKS
MILWAUKEE      PTSUNNY   60  55  83 S9        30.16S
MADISON        MOSUNNY   59  54  83 S8G18     30.12F
GREEN BAY      CLOUDY    57  57 100 S8        30.11F FOG
EAU CLAIRE     PTSUNNY   59  51  75 S15       29.97F
BLACK RVR FLS  FAIR      57  54  91 S5        30.03F
MEDFORD        MOSUNNY   53  51  92 S13       30.03F FOG
WAUSAU         CLOUDY    51  50  96 S10       30.05F FOG
WIS RAPIDS     CLOUDY    53  51  93 S8G17     30.08F FOG
MARSHFIELD     CLOUDY    53  51  93 S10       30.05F FOG
RICE LAKE      PTSUNNY   55  52  90 SE12      29.96F
$$

...NORTHEAST IOWA...


CITY           SKY/WX    TMP DP  RH WIND       PRES   REMARKS
WATERLOO       SUNNY     58  50  75 S13G23    30.01F
DUBUQUE        MOSUNNY   54  52  93 S9        30.10F FOG
DECORAH        SUNNY     55  52  88 S9G17     30.02F
MASON CITY     MOSUNNY   57  52  83 S16       29.97F
CHARLES CITY   SUNNY     57  50  77 SE12      30.00F
OELWEIN        SUNNY     57  52  82 S10       30.05F
$$

...ELSEWHERE IN IOWA...


CITY           SKY/WX    TMP DP  RH WIND       PRES   REMARKS
DES MOINES     PTSUNNY   62  56  80 S13       30.00F
IOWA CITY      SUNNY     56  52  86 SE5       30.10R
FORT DODGE     PTSUNNY   63  57  82 S16G24    29.94F
MARSHALLTOWN   SUNNY     57  53  86 S12       30.01F
CEDAR RAPIDS   SUNNY     57  53  86 S9        30.07F
$$

...NORTHERN ILLINOIS...


CITY           SKY/WX    TMP DP  RH WIND       PRES   REMARKS
CHICAGO-OHARE  MOSUNNY   60  52  74 S7        30.16R
DUPAGE         SUNNY     60  52  74 S9        30.16R
CHICAGO-MIDWAY MOSUNNY   62  51  67 S8        30.17R
MOLINE         SUNNY     59  53  80 S5        30.11S
ROCKFORD       PTSUNNY   58  51  78 S13       30.15S
STERLING       MOSUNNY   57  54  88 S6        30.13S
PEORIA         SUNNY     60  51  72 SE3       30.14R
$$

NOTE: "FAIR" INDICATES FEW OR NO CLOUDS BELOW 12,000 FEET WITH NO
SIGNIFICANT WEATHER AND/OR OBSTRUCTIONS TO VISIBILITY. WIND
SPEEDS ARE IN MILES-PER-HOUR.



USA.gov is the U.S. government's official web portal to all federal, state and local government web resources and services.